Data supplied by UK-AIR on 15/3/2017
All Data GMT hour ending 
Status: R =Ratified P=Provisional,P*=As supplied
,,St Osyth,,,,,,,,,,,,,,,,,,,,,,,
Date,time,"Nitric oxide",status,unit,"Nitrogen dioxide",status,unit,"Nitrogen oxides as nitrogen dioxide",status,unit,"Ozone",status,unit
 
01-01-2016,01:00,0.68602,R,ugm-3,10.53596,R,ugm-3,11.58784,R,ugm-3,46.43329,R,ugm-3
01-01-2016,02:00,,,,,,,,,,44.30454,R,ugm-3
01-01-2016,03:00,1.37078,R,ugm-3,6.06597,R,ugm-3,8.16781,R,ugm-3,41.61035,R,ugm-3
01-01-2016,04:00,1.81638,R,ugm-3,7.16231,R,ugm-3,9.94739,R,ugm-3,40.81207,R,ugm-3
01-01-2016,05:00,2.36488,R,ugm-3,8.36336,R,ugm-3,11.98946,R,ugm-3,38.16776,R,ugm-3
01-01-2016,06:00,2.32996,R,ugm-3,17.63086,R,ugm-3,21.20341,R,ugm-3,28.98754,R,ugm-3
01-01-2016,07:00,5.55142,R,ugm-3,18.03153,R,ugm-3,26.54359,R,ugm-3,16.21506,R,ugm-3
01-01-2016,08:00,6.40863,R,ugm-3,17.45061,R,ugm-3,27.27703,R,ugm-3,10.22796,R,ugm-3
01-01-2016,09:00,8.91009,R,ugm-3,20.63062,R,ugm-3,34.29256,R,ugm-3,9.72904,R,ugm-3
01-01-2016,10:00,6.61381,R,ugm-3,18.49674,R,ugm-3,28.63778,R,ugm-3,23.15012,R,ugm-3
01-01-2016,11:00,1.67949,R,ugm-3,1.92732,R,ugm-3,4.50250,R,ugm-3,59.77122,R,ugm-3
01-01-2016,12:00,1.40508,R,ugm-3,4.39014,R,ugm-3,6.54458,R,ugm-3,60.02068,R,ugm-3
01-01-2016,13:00,1.26788,R,ugm-3,5.43772,R,ugm-3,7.38177,R,ugm-3,58.42412,R,ugm-3
01-01-2016,14:00,1.09638,R,ugm-3,8.31890,R,ugm-3,9.99998,R,ugm-3,56.37853,R,ugm-3
01-01-2016,15:00,0.89120,R,ugm-3,10.51827,R,ugm-3,11.88475,R,ugm-3,55.23100,R,ugm-3
01-01-2016,16:00,0.61741,R,ugm-3,7.37747,R,ugm-3,8.32416,R,ugm-3,51.04003,R,ugm-3
01-01-2016,17:00,0.51451,R,ugm-3,7.84938,R,ugm-3,8.63828,R,ugm-3,50.69078,R,ugm-3
01-01-2016,18:00,0.44591,R,ugm-3,5.44202,R,ugm-3,6.12574,R,ugm-3,51.38928,R,ugm-3
01-01-2016,19:00,0.48021,R,ugm-3,3.92349,R,ugm-3,4.65981,R,ugm-3,52.28734,R,ugm-3
01-01-2016,20:00,0.48021,R,ugm-3,5.70403,R,ugm-3,6.44034,R,ugm-3,50.94024,R,ugm-3
01-01-2016,21:00,0.51451,R,ugm-3,6.69805,R,ugm-3,7.48696,R,ugm-3,52.08777,R,ugm-3
01-01-2016,22:00,0.37731,R,ugm-3,4.02868,R,ugm-3,4.60721,R,ugm-3,55.53035,R,ugm-3
01-01-2016,23:00,0.41161,R,ugm-3,5.07578,R,ugm-3,5.70690,R,ugm-3,50.19186,R,ugm-3
01-01-2016,24:00,0.44591,R,ugm-3,3.81831,R,ugm-3,4.50203,R,ugm-3,50.89035,R,ugm-3
02-01-2016,01:00,0.54881,R,ugm-3,2.86556,R,ugm-3,3.70706,R,ugm-3,52.35386,R,ugm-3
02-01-2016,02:00,,,,,,,,,,50.49121,R,ugm-3
02-01-2016,03:00,0.89182,R,ugm-3,4.66459,R,ugm-3,6.03203,R,ugm-3,49.09422,R,ugm-3
02-01-2016,04:00,0.89182,R,ugm-3,5.39851,R,ugm-3,6.76595,R,ugm-3,44.35443,R,ugm-3
02-01-2016,05:00,1.06332,R,ugm-3,6.70905,R,ugm-3,8.33946,R,ugm-3,40.51271,R,ugm-3
02-01-2016,06:00,1.26913,R,ugm-3,4.71527,R,ugm-3,6.66124,R,ugm-3,40.86196,R,ugm-3
02-01-2016,07:00,1.37203,R,ugm-3,6.02629,R,ugm-3,8.13004,R,ugm-3,40.06368,R,ugm-3
02-01-2016,08:00,1.26913,R,ugm-3,6.13148,R,ugm-3,8.07744,R,ugm-3,40.51271,R,ugm-3
02-01-2016,09:00,1.57784,R,ugm-3,6.07793,R,ugm-3,8.49724,R,ugm-3,42.90755,R,ugm-3
02-01-2016,10:00,1.71504,R,ugm-3,5.23786,R,ugm-3,7.86755,R,ugm-3,45.20261,R,ugm-3
02-01-2016,11:00,1.71504,R,ugm-3,4.03155,R,ugm-3,6.66124,R,ugm-3,48.54540,R,ugm-3
02-01-2016,12:00,1.74934,R,ugm-3,3.87425,R,ugm-3,6.55653,R,ugm-3,51.28949,R,ugm-3
02-01-2016,13:00,1.81794,R,ugm-3,5.70977,R,ugm-3,8.49724,R,ugm-3,52.23745,R,ugm-3
02-01-2016,14:00,1.64644,R,ugm-3,4.24145,R,ugm-3,6.76595,R,ugm-3,57.77552,R,ugm-3
02-01-2016,15:00,1.57784,R,ugm-3,3.03609,R,ugm-3,5.45541,R,ugm-3,60.66928,R,ugm-3
02-01-2016,16:00,1.40633,R,ugm-3,3.19340,R,ugm-3,5.34974,R,ugm-3,62.16606,R,ugm-3
02-01-2016,17:00,1.02902,R,ugm-3,3.50992,R,ugm-3,5.08773,R,ugm-3,60.02068,R,ugm-3
02-01-2016,18:00,1.02902,R,ugm-3,6.08032,R,ugm-3,7.65813,R,ugm-3,55.23100,R,ugm-3
02-01-2016,19:00,1.40633,R,ugm-3,5.29189,R,ugm-3,7.44823,R,ugm-3,54.93164,R,ugm-3
02-01-2016,20:00,1.85224,R,ugm-3,5.91919,R,ugm-3,8.75925,R,ugm-3,51.68863,R,ugm-3
02-01-2016,21:00,2.43535,R,ugm-3,7.64761,R,ugm-3,11.38177,R,ugm-3,46.59960,R,ugm-3
02-01-2016,22:00,2.40105,R,ugm-3,13.41667,R,ugm-3,17.09823,R,ugm-3,38.61680,R,ugm-3
02-01-2016,23:00,1.64644,R,ugm-3,9.69638,R,ugm-3,12.22088,R,ugm-3,42.70798,R,ugm-3
02-01-2016,24:00,1.06332,R,ugm-3,5.45063,R,ugm-3,7.08103,R,ugm-3,48.24605,R,ugm-3
03-01-2016,01:00,0.73217,R,ugm-3,5.66738,R,ugm-3,6.79001,R,ugm-3,44.30454,R,ugm-3
03-01-2016,02:00,,,,,,,,,,33.52776,R,ugm-3
03-01-2016,03:00,1.16747,R,ugm-3,9.12980,R,ugm-3,10.91990,R,ugm-3,39.26540,R,ugm-3
03-01-2016,04:00,0.92737,R,ugm-3,3.77575,R,ugm-3,5.19770,R,ugm-3,54.63229,R,ugm-3
03-01-2016,05:00,0.68602,R,ugm-3,2.88501,R,ugm-3,3.93688,R,ugm-3,58.47401,R,ugm-3
03-01-2016,06:00,0.65171,R,ugm-3,2.78030,R,ugm-3,3.77958,R,ugm-3,63.16391,R,ugm-3
03-01-2016,07:00,0.99597,R,ugm-3,2.98780,R,ugm-3,4.51493,R,ugm-3,64.26154,R,ugm-3
03-01-2016,08:00,1.30468,R,ugm-3,3.24982,R,ugm-3,5.25029,R,ugm-3,63.76262,R,ugm-3
03-01-2016,09:00,1.64768,R,ugm-3,3.35357,R,ugm-3,5.87998,R,ugm-3,66.55660,R,ugm-3
03-01-2016,10:00,1.57908,R,ugm-3,3.98374,R,ugm-3,6.40496,R,ugm-3,64.46111,R,ugm-3
03-01-2016,11:00,1.20177,R,ugm-3,2.77743,R,ugm-3,4.62012,R,ugm-3,64.31143,R,ugm-3
03-01-2016,12:00,1.13317,R,ugm-3,2.77743,R,ugm-3,4.51493,R,ugm-3,64.16176,R,ugm-3
03-01-2016,13:00,1.06457,R,ugm-3,3.61749,R,ugm-3,5.24981,R,ugm-3,62.86455,R,ugm-3
03-01-2016,14:00,0.92737,R,ugm-3,4.14295,R,ugm-3,5.56490,R,ugm-3,61.31788,R,ugm-3
03-01-2016,15:00,0.75524,R,ugm-3,3.30432,R,ugm-3,4.46234,R,ugm-3,60.66928,R,ugm-3
03-01-2016,16:00,0.68602,R,ugm-3,3.35835,R,ugm-3,4.41023,R,ugm-3,60.22025,R,ugm-3
03-01-2016,17:00,0.61741,R,ugm-3,3.67343,R,ugm-3,4.62012,R,ugm-3,60.61939,R,ugm-3
03-01-2016,18:00,0.68664,R,ugm-3,7.03178,R,ugm-3,8.08462,R,ugm-3,56.42842,R,ugm-3
03-01-2016,19:00,1.03027,R,ugm-3,4.77264,R,ugm-3,6.35237,R,ugm-3,57.02713,R,ugm-3
03-01-2016,20:00,1.51048,R,ugm-3,6.45134,R,ugm-3,8.76738,R,ugm-3,55.97939,R,ugm-3
03-01-2016,21:00,2.19743,R,ugm-3,10.75255,R,ugm-3,14.12190,R,ugm-3,47.89680,R,ugm-3
03-01-2016,22:00,2.67795,R,ugm-3,17.89048,R,ugm-3,21.99662,R,ugm-3,41.90970,R,ugm-3
03-01-2016,23:00,2.98666,R,ugm-3,13.89957,R,ugm-3,18.47905,R,ugm-3,46.69938,R,ugm-3
03-01-2016,24:00,3.29537,R,ugm-3,12.27108,R,ugm-3,17.32390,R,ugm-3,47.29809,R,ugm-3
04-01-2016,01:00,3.34484,R,ugm-3,9.86468,R,ugm-3,14.99336,R,ugm-3,48.16289,R,ugm-3
04-01-2016,02:00,,,,,,,,,,48.76160,R,ugm-3
04-01-2016,03:00,3.77994,R,ugm-3,8.28638,R,ugm-3,14.08222,R,ugm-3,54.48261,R,ugm-3
04-01-2016,04:00,3.57352,R,ugm-3,4.24193,R,ugm-3,9.72124,R,ugm-3,61.96649,R,ugm-3
04-01-2016,05:00,3.33341,R,ugm-3,4.08462,R,ugm-3,9.19578,R,ugm-3,61.51745,R,ugm-3
04-01-2016,06:00,3.16159,R,ugm-3,5.66148,R,ugm-3,10.50919,R,ugm-3,60.32003,R,ugm-3
04-01-2016,07:00,3.02346,R,ugm-3,5.55773,R,ugm-3,10.19363,R,ugm-3,60.81896,R,ugm-3
04-01-2016,08:00,3.09268,R,ugm-3,11.33730,R,ugm-3,16.07934,R,ugm-3,54.78197,R,ugm-3
04-01-2016,09:00,3.02346,R,ugm-3,5.08534,R,ugm-3,9.72124,R,ugm-3,59.92089,R,ugm-3
04-01-2016,10:00,3.16159,R,ugm-3,6.13434,R,ugm-3,10.98205,R,ugm-3,58.57380,R,ugm-3
04-01-2016,11:00,2.92055,R,ugm-3,5.03274,R,ugm-3,9.51086,R,ugm-3,60.91874,R,ugm-3
04-01-2016,12:00,2.88625,R,ugm-3,4.08653,R,ugm-3,8.51206,R,ugm-3,64.76047,R,ugm-3
04-01-2016,13:00,2.85226,R,ugm-3,4.45373,R,ugm-3,8.82714,R,ugm-3,63.51315,R,ugm-3
04-01-2016,14:00,2.61185,R,ugm-3,4.40305,R,ugm-3,8.40783,R,ugm-3,63.46326,R,ugm-3
04-01-2016,15:00,2.37081,R,ugm-3,4.29882,R,ugm-3,7.93401,R,ugm-3,62.26584,R,ugm-3
04-01-2016,16:00,2.33619,R,ugm-3,5.03513,R,ugm-3,8.61725,R,ugm-3,60.91874,R,ugm-3
04-01-2016,17:00,2.50894,R,ugm-3,6.66172,R,ugm-3,10.50871,R,ugm-3,57.47616,R,ugm-3
04-01-2016,18:00,2.61185,R,ugm-3,8.86922,R,ugm-3,12.87399,R,ugm-3,55.92949,R,ugm-3
04-01-2016,19:00,2.61185,R,ugm-3,7.66052,R,ugm-3,11.66529,R,ugm-3,58.82326,R,ugm-3
04-01-2016,20:00,2.54325,R,ugm-3,9.92014,R,ugm-3,13.81973,R,ugm-3,56.57810,R,ugm-3
04-01-2016,21:00,2.50894,R,ugm-3,6.87209,R,ugm-3,10.71908,R,ugm-3,60.02068,R,ugm-3
04-01-2016,22:00,2.33619,R,ugm-3,4.82524,R,ugm-3,8.40735,R,ugm-3,62.91444,R,ugm-3
04-01-2016,23:00,2.23329,R,ugm-3,4.82572,R,ugm-3,8.25005,R,ugm-3,64.01208,R,ugm-3
04-01-2016,24:00,2.30189,R,ugm-3,2.82859,R,ugm-3,6.35811,R,ugm-3,64.21165,R,ugm-3
05-01-2016,01:00,2.15533,R,ugm-3,3.00645,R,ugm-3,6.31125,R,ugm-3,65.45896,R,ugm-3
05-01-2016,02:00,,,,,,,,,,65.52548,R,ugm-3
05-01-2016,03:00,1.82293,R,ugm-3,3.09538,R,ugm-3,5.89050,R,ugm-3,63.86240,R,ugm-3
05-01-2016,04:00,1.65111,R,ugm-3,3.67439,R,ugm-3,6.20606,R,ugm-3,61.96649,R,ugm-3
05-01-2016,05:00,1.61681,R,ugm-3,4.14773,R,ugm-3,6.62681,R,ugm-3,59.97079,R,ugm-3
05-01-2016,06:00,1.75433,R,ugm-3,2.83241,R,ugm-3,5.52234,R,ugm-3,59.12261,R,ugm-3
05-01-2016,07:00,1.99443,R,ugm-3,2.72723,R,ugm-3,5.78531,R,ugm-3,58.02498,R,ugm-3
05-01-2016,08:00,1.99443,R,ugm-3,3.30576,R,ugm-3,6.36384,R,ugm-3,58.07487,R,ugm-3
05-01-2016,09:00,2.23547,R,ugm-3,3.51470,R,ugm-3,6.94238,R,ugm-3,54.63229,R,ugm-3
05-01-2016,10:00,3.54264,R,ugm-3,8.92612,R,ugm-3,14.35809,R,ugm-3,50.19186,R,ugm-3
05-01-2016,11:00,2.78616,R,ugm-3,6.56227,R,ugm-3,10.83431,R,ugm-3,53.58455,R,ugm-3
05-01-2016,12:00,2.57973,R,ugm-3,6.24766,R,ugm-3,10.20319,R,ugm-3,55.43057,R,ugm-3
05-01-2016,13:00,3.37083,R,ugm-3,8.13769,R,ugm-3,13.30622,R,ugm-3,55.77982,R,ugm-3
05-01-2016,14:00,3.30192,R,ugm-3,9.66338,R,ugm-3,14.72625,R,ugm-3,54.18326,R,ugm-3
05-01-2016,15:00,3.30223,R,ugm-3,9.97847,R,ugm-3,15.04181,R,ugm-3,55.87960,R,ugm-3
05-01-2016,16:00,2.82015,R,ugm-3,8.98206,R,ugm-3,13.30622,R,ugm-3,55.68003,R,ugm-3
05-01-2016,17:00,2.88906,R,ugm-3,10.19123,R,ugm-3,14.62106,R,ugm-3,49.84261,R,ugm-3
05-01-2016,18:00,3.09580,R,ugm-3,9.97943,R,ugm-3,14.72625,R,ugm-3,48.94454,R,ugm-3
05-01-2016,19:00,3.30192,R,ugm-3,7.40185,R,ugm-3,12.46472,R,ugm-3,51.68863,R,ugm-3
05-01-2016,20:00,3.37083,R,ugm-3,6.98063,R,ugm-3,12.14916,R,ugm-3,51.48906,R,ugm-3
05-01-2016,21:00,3.54296,R,ugm-3,7.19004,R,ugm-3,12.62250,R,ugm-3,51.23960,R,ugm-3
05-01-2016,22:00,3.64586,R,ugm-3,9.29379,R,ugm-3,14.88403,R,ugm-3,51.08992,R,ugm-3
05-01-2016,23:00,3.74876,R,ugm-3,8.55748,R,ugm-3,14.30550,R,ugm-3,50.24175,R,ugm-3
05-01-2016,24:00,4.02410,R,ugm-3,14.34136,R,ugm-3,20.51156,R,ugm-3,41.01164,R,ugm-3
06-01-2016,01:00,4.45245,R,ugm-3,19.70449,R,ugm-3,26.53148,R,ugm-3,33.79385,R,ugm-3
06-01-2016,02:00,,,,,,,,,,39.31529,R,ugm-3
06-01-2016,03:00,8.67497,R,ugm-3,10.49293,R,ugm-3,23.79437,R,ugm-3,29.18711,R,ugm-3
06-01-2016,04:00,8.15859,R,ugm-3,8.75734,R,ugm-3,21.26700,R,ugm-3,23.10023,R,ugm-3
06-01-2016,05:00,11.25719,R,ugm-3,9.27084,R,ugm-3,26.53163,R,ugm-3,21.65335,R,ugm-3
06-01-2016,06:00,16.00785,R,ugm-3,10.61916,R,ugm-3,35.16418,R,ugm-3,16.76388,R,ugm-3
06-01-2016,07:00,12.56530,R,ugm-3,8.10709,R,ugm-3,27.37361,R,ugm-3,22.10238,R,ugm-3
06-01-2016,08:00,11.42932,R,ugm-3,7.74323,R,ugm-3,25.26795,R,ugm-3,22.40173,R,ugm-3
06-01-2016,09:00,13.01308,R,ugm-3,13.05329,R,ugm-3,33.00640,R,ugm-3,15.56646,R,ugm-3
06-01-2016,10:00,35.25182,R,ugm-3,28.43744,R,ugm-3,82.48947,R,ugm-3,4.59011,R,ugm-3
06-01-2016,11:00,14.56223,R,ugm-3,25.36501,R,ugm-3,47.69345,R,ugm-3,20.95485,R,ugm-3
06-01-2016,12:00,7.78035,R,ugm-3,21.81302,R,ugm-3,33.74272,R,ugm-3,26.89206,R,ugm-3
06-01-2016,13:00,7.02292,R,ugm-3,18.71094,R,ugm-3,29.47928,R,ugm-3,34.32604,R,ugm-3
06-01-2016,14:00,5.09522,R,ugm-3,15.29665,R,ugm-3,23.10922,R,ugm-3,36.67099,R,ugm-3
06-01-2016,15:00,4.44070,R,ugm-3,17.03798,R,ugm-3,23.84696,R,ugm-3,35.52346,R,ugm-3
06-01-2016,16:00,4.88848,R,ugm-3,18.50870,R,ugm-3,26.00426,R,ugm-3,33.07873,R,ugm-3
06-01-2016,17:00,3.82142,R,ugm-3,19.30334,R,ugm-3,25.16276,R,ugm-3,32.08088,R,ugm-3
06-01-2016,18:00,5.64559,R,ugm-3,20.92801,R,ugm-3,29.58446,R,ugm-3,28.38883,R,ugm-3
06-01-2016,19:00,6.78219,R,ugm-3,19.92251,R,ugm-3,30.32173,R,ugm-3,27.14152,R,ugm-3
06-01-2016,20:00,7.12614,R,ugm-3,19.97367,R,ugm-3,30.90026,R,ugm-3,24.04819,R,ugm-3
06-01-2016,21:00,4.57853,R,ugm-3,13.77287,R,ugm-3,20.79318,R,ugm-3,32.67959,R,ugm-3
06-01-2016,22:00,4.71667,R,ugm-3,9.66578,R,ugm-3,16.89789,R,ugm-3,40.36303,R,ugm-3
06-01-2016,23:00,4.16536,R,ugm-3,12.30072,R,ugm-3,18.68752,R,ugm-3,37.46927,R,ugm-3
06-01-2016,24:00,4.02816,R,ugm-3,17.30143,R,ugm-3,23.47785,R,ugm-3,28.23916,R,ugm-3
07-01-2016,01:00,4.13854,R,ugm-3,19.71788,R,ugm-3,26.06355,R,ugm-3,26.80890,R,ugm-3
07-01-2016,02:00,,,,,,,,,,39.98052,R,ugm-3
07-01-2016,03:00,3.03499,R,ugm-3,5.67343,R,ugm-3,10.32702,R,ugm-3,42.30884,R,ugm-3
07-01-2016,04:00,2.65550,R,ugm-3,7.04613,R,ugm-3,11.11784,R,ugm-3,41.41078,R,ugm-3
07-01-2016,05:00,2.10388,R,ugm-3,5.30958,R,ugm-3,8.53549,R,ugm-3,43.85551,R,ugm-3
07-01-2016,06:00,1.65579,R,ugm-3,6.15538,R,ugm-3,8.69423,R,ugm-3,44.45422,R,ugm-3
07-01-2016,07:00,1.34490,R,ugm-3,3.41764,R,ugm-3,5.47979,R,ugm-3,55.38068,R,ugm-3
07-01-2016,08:00,10.72553,R,ugm-3,6.42170,R,ugm-3,22.86728,R,ugm-3,57.97509,R,ugm-3
07-01-2016,09:00,1.72439,R,ugm-3,3.62610,R,ugm-3,6.27013,R,ugm-3,62.81466,R,ugm-3
07-01-2016,10:00,1.44843,R,ugm-3,3.41668,R,ugm-3,5.63757,R,ugm-3,62.21595,R,ugm-3
07-01-2016,11:00,1.62087,R,ugm-3,4.78603,R,ugm-3,7.27133,R,ugm-3,56.37853,R,ugm-3
07-01-2016,12:00,2.82825,R,ugm-3,14.89503,R,ugm-3,19.23162,R,ugm-3,45.65164,R,ugm-3
07-01-2016,13:00,3.79398,R,ugm-3,38.91603,R,ugm-3,44.73338,R,ugm-3,28.58840,R,ugm-3
07-01-2016,14:00,1.13816,R,ugm-3,12.74442,R,ugm-3,14.48958,R,ugm-3,60.51960,R,ugm-3
07-01-2016,15:00,0.51701,R,ugm-3,3.15849,R,ugm-3,3.95123,R,ugm-3,70.14886,R,ugm-3
07-01-2016,16:00,0.34519,R,ugm-3,3.58020,R,ugm-3,4.10948,R,ugm-3,68.80176,R,ugm-3
07-01-2016,17:00,0.17275,R,ugm-3,4.21419,R,ugm-3,4.47908,R,ugm-3,65.25939,R,ugm-3
07-01-2016,18:00,0.13845,R,ugm-3,5.05713,R,ugm-3,5.26942,R,ugm-3,62.01638,R,ugm-3
07-01-2016,19:00,0.13845,R,ugm-3,10.37818,R,ugm-3,10.59047,R,ugm-3,56.72777,R,ugm-3
07-01-2016,20:00,0.13845,R,ugm-3,7.32201,R,ugm-3,7.53429,R,ugm-3,60.61939,R,ugm-3
07-01-2016,21:00,0.06923,R,ugm-3,13.54050,R,ugm-3,13.64664,R,ugm-3,53.28519,R,ugm-3
07-01-2016,22:00,0.06923,R,ugm-3,12.90794,R,ugm-3,13.01408,R,ugm-3,53.58455,R,ugm-3
07-01-2016,23:00,0.06923,R,ugm-3,12.11760,R,ugm-3,12.22374,R,ugm-3,54.13336,R,ugm-3
07-01-2016,24:00,0.03461,R,ugm-3,10.27443,R,ugm-3,10.32750,R,ugm-3,54.68218,R,ugm-3
08-01-2016,01:00,0.09188,R,ugm-3,17.15704,R,ugm-3,17.29793,R,ugm-3,46.36676,R,ugm-3
08-01-2016,02:00,,,,,,,,,,46.23372,R,ugm-3
08-01-2016,03:00,0.34488,R,ugm-3,12.28638,R,ugm-3,12.81518,R,ugm-3,48.49551,R,ugm-3
08-01-2016,04:00,0.41410,R,ugm-3,10.28160,R,ugm-3,10.91655,R,ugm-3,49.89250,R,ugm-3
08-01-2016,05:00,0.65639,R,ugm-3,12.01911,R,ugm-3,13.02556,R,ugm-3,45.50196,R,ugm-3
08-01-2016,06:00,0.96666,R,ugm-3,18.03105,R,ugm-3,19.51324,R,ugm-3,39.36518,R,ugm-3
08-01-2016,07:00,1.10511,R,ugm-3,11.43723,R,ugm-3,13.13170,R,ugm-3,46.10067,R,ugm-3
08-01-2016,08:00,1.20801,R,ugm-3,12.59812,R,ugm-3,14.45037,R,ugm-3,49.29379,R,ugm-3
08-01-2016,09:00,1.27724,R,ugm-3,6.42696,R,ugm-3,8.38536,R,ugm-3,55.43057,R,ugm-3
08-01-2016,10:00,1.96699,R,ugm-3,9.11354,R,ugm-3,12.12955,R,ugm-3,55.28089,R,ugm-3
08-01-2016,11:00,2.31281,R,ugm-3,9.26893,R,ugm-3,12.81518,R,ugm-3,55.68003,R,ugm-3
08-01-2016,12:00,2.65800,R,ugm-3,9.58306,R,ugm-3,13.65860,R,ugm-3,55.58025,R,ugm-3
08-01-2016,13:00,2.69261,R,ugm-3,8.05306,R,ugm-3,12.18167,R,ugm-3,57.52605,R,ugm-3
08-01-2016,14:00,2.34742,R,ugm-3,5.04948,R,ugm-3,8.64880,R,ugm-3,61.46756,R,ugm-3
08-01-2016,15:00,2.27819,R,ugm-3,5.63088,R,ugm-3,9.12406,R,ugm-3,61.11831,R,ugm-3
08-01-2016,16:00,2.48556,R,ugm-3,7.68634,R,ugm-3,11.49747,R,ugm-3,57.47616,R,ugm-3
08-01-2016,17:00,2.48587,R,ugm-3,10.00572,R,ugm-3,13.81733,R,ugm-3,56.12906,R,ugm-3
08-01-2016,18:00,2.48587,R,ugm-3,7.31627,R,ugm-3,11.12788,R,ugm-3,57.87530,R,ugm-3
08-01-2016,19:00,2.52017,R,ugm-3,8.37053,R,ugm-3,12.23474,R,ugm-3,53.93379,R,ugm-3
08-01-2016,20:00,2.52017,R,ugm-3,11.42958,R,ugm-3,15.29378,R,ugm-3,48.84476,R,ugm-3
08-01-2016,21:00,2.62307,R,ugm-3,15.22733,R,ugm-3,19.24931,R,ugm-3,46.89895,R,ugm-3
08-01-2016,22:00,2.55447,R,ugm-3,10.16350,R,ugm-3,14.08030,R,ugm-3,50.69078,R,ugm-3
08-01-2016,23:00,2.62307,R,ugm-3,10.53357,R,ugm-3,14.55556,R,ugm-3,51.13981,R,ugm-3
08-01-2016,24:00,2.48556,R,ugm-3,4.99593,R,ugm-3,8.80706,R,ugm-3,62.11616,R,ugm-3
09-01-2016,01:00,2.44138,R,ugm-3,6.60259,R,ugm-3,10.34599,R,ugm-3,57.87530,R,ugm-3
09-01-2016,02:00,,,,,,,,,,54.41609,R,ugm-3
09-01-2016,03:00,2.72940,R,ugm-3,6.79463,R,ugm-3,10.97966,R,ugm-3,54.13336,R,ugm-3
09-01-2016,04:00,2.79863,R,ugm-3,5.63231,R,ugm-3,9.92348,R,ugm-3,57.77552,R,ugm-3
09-01-2016,05:00,2.86786,R,ugm-3,4.73487,R,ugm-3,9.13219,R,ugm-3,58.37423,R,ugm-3
09-01-2016,06:00,2.79863,R,ugm-3,4.04876,R,ugm-3,8.33993,R,ugm-3,55.92949,R,ugm-3
09-01-2016,07:00,2.79863,R,ugm-3,4.78794,R,ugm-3,9.07912,R,ugm-3,55.18111,R,ugm-3
09-01-2016,08:00,2.62557,R,ugm-3,3.62753,R,ugm-3,7.65335,R,ugm-3,56.37853,R,ugm-3
09-01-2016,09:00,2.86786,R,ugm-3,4.20654,R,ugm-3,8.60386,R,ugm-3,55.48046,R,ugm-3
09-01-2016,10:00,3.14413,R,ugm-3,6.58043,R,ugm-3,11.40137,R,ugm-3,53.68433,R,ugm-3
09-01-2016,11:00,2.86786,R,ugm-3,4.52354,R,ugm-3,8.92086,R,ugm-3,57.82541,R,ugm-3
09-01-2016,12:00,2.66018,R,ugm-3,4.57805,R,ugm-3,8.65693,R,ugm-3,58.17466,R,ugm-3
09-01-2016,13:00,2.72972,R,ugm-3,5.94931,R,ugm-3,10.13482,R,ugm-3,57.67573,R,ugm-3
09-01-2016,14:00,2.07301,R,ugm-3,5.37269,R,ugm-3,8.55127,R,ugm-3,57.67573,R,ugm-3
09-01-2016,15:00,2.21084,R,ugm-3,7.74754,R,ugm-3,11.13744,R,ugm-3,58.57380,R,ugm-3
09-01-2016,16:00,2.52204,R,ugm-3,6.05641,R,ugm-3,9.92348,R,ugm-3,60.86885,R,ugm-3
09-01-2016,17:00,1.72751,R,ugm-3,4.31843,R,ugm-3,6.96724,R,ugm-3,63.81251,R,ugm-3
09-01-2016,18:00,1.76181,R,ugm-3,4.79416,R,ugm-3,7.49557,R,ugm-3,62.16606,R,ugm-3
09-01-2016,19:00,1.79611,R,ugm-3,3.21109,R,ugm-3,5.96509,R,ugm-3,64.01208,R,ugm-3
09-01-2016,20:00,1.62430,R,ugm-3,3.36839,R,ugm-3,5.85894,R,ugm-3,63.66283,R,ugm-3
09-01-2016,21:00,1.20895,R,ugm-3,2.42266,R,ugm-3,4.27635,R,ugm-3,66.15746,R,ugm-3
09-01-2016,22:00,1.07081,R,ugm-3,3.21443,R,ugm-3,4.85632,R,ugm-3,65.85810,R,ugm-3
09-01-2016,23:00,1.17433,R,ugm-3,2.63303,R,ugm-3,4.43365,R,ugm-3,70.89724,R,ugm-3
09-01-2016,24:00,0.89868,R,ugm-3,2.05307,R,ugm-3,3.43103,R,ugm-3,77.73252,R,ugm-3
10-01-2016,01:00,1.06021,R,ugm-3,1.33556,R,ugm-3,2.96119,R,ugm-3,77.96535,R,ugm-3
10-01-2016,02:00,,,,,,,,,,78.69710,R,ugm-3
10-01-2016,03:00,1.00252,R,ugm-3,2.37628,R,ugm-3,3.91345,R,ugm-3,74.73897,R,ugm-3
10-01-2016,04:00,1.17558,R,ugm-3,2.53311,R,ugm-3,4.33564,R,ugm-3,72.24434,R,ugm-3
10-01-2016,05:00,1.17558,R,ugm-3,2.21659,R,ugm-3,4.01912,R,ugm-3,70.69767,R,ugm-3
10-01-2016,06:00,1.10636,R,ugm-3,3.38034,R,ugm-3,5.07673,R,ugm-3,67.45466,R,ugm-3
10-01-2016,07:00,1.03713,R,ugm-3,2.37580,R,ugm-3,3.96605,R,ugm-3,69.15101,R,ugm-3
10-01-2016,08:00,0.76023,R,ugm-3,0.84389,R,ugm-3,2.00956,R,ugm-3,71.59574,R,ugm-3
10-01-2016,09:00,0.82946,R,ugm-3,3.16997,R,ugm-3,4.44178,R,ugm-3,67.95359,R,ugm-3
10-01-2016,10:00,0.93329,R,ugm-3,2.64068,R,ugm-3,4.07171,R,ugm-3,65.55875,R,ugm-3
10-01-2016,11:00,1.38326,R,ugm-3,5.81113,R,ugm-3,7.93209,R,ugm-3,61.56735,R,ugm-3
10-01-2016,12:00,1.14097,R,ugm-3,3.85608,R,ugm-3,5.60554,R,ugm-3,67.65423,R,ugm-3
10-01-2016,13:00,1.38326,R,ugm-3,5.33444,R,ugm-3,7.45540,R,ugm-3,66.95574,R,ugm-3
10-01-2016,14:00,1.48709,R,ugm-3,6.86827,R,ugm-3,9.14844,R,ugm-3,66.15746,R,ugm-3
10-01-2016,15:00,1.27942,R,ugm-3,5.91775,R,ugm-3,7.87950,R,ugm-3,65.80821,R,ugm-3
10-01-2016,16:00,1.34864,R,ugm-3,6.76308,R,ugm-3,8.83097,R,ugm-3,63.26369,R,ugm-3
10-01-2016,17:00,1.31403,R,ugm-3,6.92229,R,ugm-3,8.93711,R,ugm-3,67.20520,R,ugm-3
10-01-2016,18:00,1.00252,R,ugm-3,7.02939,R,ugm-3,8.56657,R,ugm-3,69.69982,R,ugm-3
10-01-2016,19:00,0.69132,R,ugm-3,5.97322,R,ugm-3,7.03322,R,ugm-3,70.14886,R,ugm-3
10-01-2016,20:00,0.65670,R,ugm-3,5.60315,R,ugm-3,6.61008,R,ugm-3,68.20305,R,ugm-3
10-01-2016,21:00,0.72562,R,ugm-3,7.29523,R,ugm-3,8.40783,R,ugm-3,64.41122,R,ugm-3
10-01-2016,22:00,0.89868,R,ugm-3,4.70284,R,ugm-3,6.08079,R,ugm-3,65.95789,R,ugm-3
10-01-2016,23:00,1.10636,R,ugm-3,6.34185,R,ugm-3,8.03824,R,ugm-3,63.61294,R,ugm-3
10-01-2016,24:00,1.24481,R,ugm-3,4.06693,R,ugm-3,5.97561,R,ugm-3,66.15746,R,ugm-3
11-01-2016,01:00,1.24605,R,ugm-3,5.07578,R,ugm-3,6.98636,R,ugm-3,67.38814,R,ugm-3
11-01-2016,02:00,,,,,,,,,,67.92032,R,ugm-3
11-01-2016,03:00,1.59218,R,ugm-3,3.96318,R,ugm-3,6.40448,R,ugm-3,62.16606,R,ugm-3
11-01-2016,04:00,1.55757,R,ugm-3,3.80444,R,ugm-3,6.19268,R,ugm-3,61.21810,R,ugm-3
11-01-2016,05:00,1.59218,R,ugm-3,4.17451,R,ugm-3,6.61582,R,ugm-3,58.47401,R,ugm-3
11-01-2016,06:00,1.48834,R,ugm-3,3.59359,R,ugm-3,5.87568,R,ugm-3,60.86885,R,ugm-3
11-01-2016,07:00,1.31528,R,ugm-3,2.00573,R,ugm-3,4.02247,R,ugm-3,65.40907,R,ugm-3
11-01-2016,08:00,0.89993,R,ugm-3,0.94908,R,ugm-3,2.32895,R,ugm-3,76.93424,R,ugm-3
11-01-2016,09:00,1.10760,R,ugm-3,2.27109,R,ugm-3,3.96939,R,ugm-3,69.20090,R,ugm-3
11-01-2016,10:00,1.10760,R,ugm-3,4.91799,R,ugm-3,6.61629,R,ugm-3,66.00778,R,ugm-3
11-01-2016,11:00,1.41912,R,ugm-3,4.97011,R,ugm-3,7.14606,R,ugm-3,64.61079,R,ugm-3
11-01-2016,12:00,2.87284,R,ugm-3,14.11999,R,ugm-3,18.52495,R,ugm-3,57.72562,R,ugm-3
11-01-2016,13:00,2.45749,R,ugm-3,18.83239,R,ugm-3,22.60049,R,ugm-3,55.48046,R,ugm-3
11-01-2016,14:00,1.69602,R,ugm-3,17.56536,R,ugm-3,20.16588,R,ugm-3,54.33293,R,ugm-3
11-01-2016,15:00,0.76148,R,ugm-3,11.11210,R,ugm-3,12.27968,R,ugm-3,59.07272,R,ugm-3
11-01-2016,16:00,0.44996,R,ugm-3,8.04302,R,ugm-3,8.73295,R,ugm-3,58.32433,R,ugm-3
11-01-2016,17:00,0.38074,R,ugm-3,8.78459,R,ugm-3,9.36838,R,ugm-3,54.38283,R,ugm-3
11-01-2016,18:00,0.38074,R,ugm-3,9.68442,R,ugm-3,10.26821,R,ugm-3,53.83401,R,ugm-3
11-01-2016,19:00,0.44996,R,ugm-3,11.21920,R,ugm-3,11.90914,R,ugm-3,52.53680,R,ugm-3
11-01-2016,20:00,0.51919,R,ugm-3,13.33634,R,ugm-3,14.13242,R,ugm-3,46.30024,R,ugm-3
11-01-2016,21:00,0.65764,R,ugm-3,11.69446,R,ugm-3,12.70283,R,ugm-3,46.94884,R,ugm-3
11-01-2016,22:00,0.58841,R,ugm-3,10.47763,R,ugm-3,11.37985,R,ugm-3,45.75142,R,ugm-3
11-01-2016,23:00,0.79609,R,ugm-3,18.36287,R,ugm-3,19.58352,R,ugm-3,34.57550,R,ugm-3
11-01-2016,24:00,0.83070,R,ugm-3,26.46135,R,ugm-3,27.73508,R,ugm-3,25.94410,R,ugm-3
12-01-2016,01:00,1.10885,R,ugm-3,31.71053,R,ugm-3,33.41074,R,ugm-3,23.94840,R,ugm-3
12-01-2016,02:00,,,,,,,,,,33.66081,R,ugm-3
12-01-2016,03:00,0.69350,R,ugm-3,19.01455,R,ugm-3,20.07790,R,ugm-3,32.97894,R,ugm-3
12-01-2016,04:00,0.69350,R,ugm-3,15.41236,R,ugm-3,16.47571,R,ugm-3,33.52776,R,ugm-3
12-01-2016,05:00,0.58873,R,ugm-3,13.29474,R,ugm-3,14.19744,R,ugm-3,34.07658,R,ugm-3
12-01-2016,06:00,0.38074,R,ugm-3,9.64043,R,ugm-3,10.22423,R,ugm-3,37.26970,R,ugm-3
12-01-2016,07:00,0.31151,R,ugm-3,7.68108,R,ugm-3,8.15873,R,ugm-3,38.91615,R,ugm-3
12-01-2016,08:00,0.38074,R,ugm-3,16.05113,R,ugm-3,16.63493,R,ugm-3,31.53206,R,ugm-3
12-01-2016,09:00,0.97009,R,ugm-3,15.94117,R,ugm-3,17.42861,R,ugm-3,36.77077,R,ugm-3
12-01-2016,10:00,2.63274,R,ugm-3,16.30598,R,ugm-3,20.34278,R,ugm-3,40.26325,R,ugm-3
12-01-2016,11:00,3.08301,R,ugm-3,12.91368,R,ugm-3,17.64090,R,ugm-3,46.64949,R,ugm-3
12-01-2016,12:00,3.11763,R,ugm-3,11.37698,R,ugm-3,16.15728,R,ugm-3,49.94239,R,ugm-3
12-01-2016,13:00,1.80110,R,ugm-3,13.66147,R,ugm-3,16.42312,R,ugm-3,48.09637,R,ugm-3
12-01-2016,14:00,1.52420,R,ugm-3,11.01313,R,ugm-3,13.35021,R,ugm-3,50.19186,R,ugm-3
12-01-2016,15:00,0.76272,R,ugm-3,7.09490,R,ugm-3,8.26439,R,ugm-3,51.73852,R,ugm-3
12-01-2016,16:00,0.62365,R,ugm-3,7.78531,R,ugm-3,8.74156,R,ugm-3,49.49336,R,ugm-3
12-01-2016,17:00,0.31151,R,ugm-3,13.13696,R,ugm-3,13.61461,R,ugm-3,43.90540,R,ugm-3
12-01-2016,18:00,0.27690,R,ugm-3,9.79965,R,ugm-3,10.22423,R,ugm-3,51.68863,R,ugm-3
12-01-2016,19:00,0.17306,R,ugm-3,6.72722,R,ugm-3,6.99258,R,ugm-3,54.83186,R,ugm-3
12-01-2016,20:00,0.13845,R,ugm-3,8.05210,R,ugm-3,8.26439,R,ugm-3,53.33508,R,ugm-3
12-01-2016,21:00,0.10384,R,ugm-3,9.11115,R,ugm-3,9.27037,R,ugm-3,50.34153,R,ugm-3
12-01-2016,22:00,0.06923,R,ugm-3,9.11115,R,ugm-3,9.21729,R,ugm-3,46.64949,R,ugm-3
12-01-2016,23:00,0.06923,R,ugm-3,10.06501,R,ugm-3,10.17115,R,ugm-3,43.30669,R,ugm-3
12-01-2016,24:00,0.00000,R,ugm-3,10.70139,R,ugm-3,10.70139,R,ugm-3,39.61465,R,ugm-3
13-01-2016,01:00,0.04615,R,ugm-3,9.04931,R,ugm-3,9.12008,R,ugm-3,41.11142,R,ugm-3
13-01-2016,02:00,,,,,,,,,,48.96117,R,ugm-3
13-01-2016,03:00,0.27815,R,ugm-3,6.14869,R,ugm-3,6.57518,R,ugm-3,52.03788,R,ugm-3
13-01-2016,04:00,0.31276,R,ugm-3,4.34568,R,ugm-3,4.82524,R,ugm-3,48.64519,R,ugm-3